Tracking 32412 objects as of 6-Dec-2025
HD Live streaming from Space Station
objects crossing your sky now

HORIZON GORIZONT

Track HORIZON GORIZONT now!
10-day predictions


NORAD ID: 61757
Int'l Code: 2024-199Y
Perigee: 412.9 km
Apogee: 420.2 km
Inclination: 97.3 °
Period: 92.8 minutes
Semi major axis: 6787 km
RCS: Unknown
Launch date: November 4, 2024
Source: Commonwealth of Independent States (former USSR) (CIS)
Launch site: VOSTOCHNY COSMODROME (VOSTO)
Your satellite tracking list
Your tracking list is empty




NASA's NSSDC Master Catalog

Two Line Element Set (TLE):
1 61757U 24199Y   25339.27173937  .00081834  00000-0  13257-2 0  9996
2 61757  97.3228 210.1798 0005389 251.4197 108.6471 15.52494879107707
Source of the keplerian elements: AFSPC